| time (UTC) | temp C | wind direction | speed KPH | gust KPH | rain 1hr cm | rain 24hr cm | rain mn cm | humidity % | barometer mb |
| 20260502233050 | 17 | 182 | 4.8 | 41.8 | 0.00 | 0.00 | 0.00 | 33 | 1012.6 |
| 20260502231546 | 18 | 214 | 8.0 | 20.9 | 0.00 | 0.00 | 0.00 | 33 | 1012.6 |
| 20260502230142 | 17 | 199 | 8.0 | 16.1 | 0.00 | 0.00 | 0.00 | 32 | 1012.7 |
| 20260502224539 | 17 | 156 | 8.0 | 20.9 | 0.00 | 0.00 | 0.00 | 32 | 1013.0 |
| 20260502223037 | 17 | 254 | 8.0 | 19.3 | 0.00 | 0.00 | 0.00 | 32 | 1013.2 |
| 20260502221536 | 17 | 230 | 6.4 | 24.1 | 0.00 | 0.00 | 0.00 | 32 | 1013.3 |
| 20260502220035 | 17 | 200 | 11.3 | 35.4 | 0.00 | 0.00 | 0.00 | 31 | 1013.3 |
| 20260502214533 | 17 | 240 | 14.5 | 54.7 | 0.00 | 0.00 | 0.00 | 31 | 1013.7 |
| 20260502213002 | 18 | 238 | 16.1 | 35.4 | 0.00 | 0.00 | 0.00 | 31 | 1013.9 |
| 20260502211601 | 18 | 233 | 17.7 | 46.7 | 0.00 | 0.00 | 0.00 | 31 | 1014.1 |
| 20260502210055 | 17 | 204 | 22.5 | 51.5 | 0.00 | 0.00 | 0.00 | 32 | 1014.3 |
| 20260502204602 | 17 | 237 | 9.7 | 59.5 | 0.00 | 0.00 | 0.00 | 32 | 1014.6 |
| 20260502203051 | 17 | 200 | 24.1 | 49.9 | 0.00 | 0.00 | 0.00 | 30 | 1015.0 |
| 20260502201547 | 17 | 180 | 8.0 | 30.6 | 0.00 | 0.00 | 0.00 | 33 | 1015.4 |
| 20260502200046 | 17 | 239 | 16.1 | 45.1 | 0.00 | 0.00 | 0.00 | 32 | 1015.6 |
| 20260502194541 | 16 | 202 | 22.5 | 41.8 | 0.00 | 0.00 | 0.00 | 32 | 1016.1 |
| 20260502193036 | 16 | 192 | 12.9 | 37.0 | 0.00 | 0.00 | 0.00 | 33 | 1016.4 |
| 20260502191532 | 15 | 269 | 12.9 | 35.4 | 0.00 | 0.00 | 0.00 | 32 | 1016.7 |
| 20260502190103 | 15 | 230 | 8.0 | 35.4 | 0.00 | 0.00 | 0.00 | 33 | 1017.0 |
| 20260502184558 | 15 | 181 | 16.1 | 32.2 | 0.00 | 0.00 | 0.00 | 33 | 1017.3 |
| 20260502183052 | 15 | 154 | 16.1 | 38.6 | 0.00 | 0.00 | 0.00 | 33 | 1017.5 |
| 20260502181552 | 15 | 200 | 8.0 | 33.8 | 0.00 | 0.00 | 0.00 | 34 | 1017.9 |
| 20260502163026 | 12 | 212 | 9.7 | 20.9 | 0.00 | 0.00 | 0.00 | 37 | 1019.6 |
| 20260502161522 | 12 | 192 | 11.3 | 29.0 | 0.00 | 0.00 | 0.00 | 37 | 1019.8 |
| 20260502151508 | 11 | 355 | 4.8 | 16.1 | 0.00 | 0.00 | 0.00 | 44 | 1020.4 |
| 20260502123027 | 3 | 227 | 0.0 | 3.2 | 0.00 | 0.00 | 0.00 | 72 | 1021.1 |
| 20260502121517 | 2 | 227 | 0.0 | 0.0 | 0.00 | 0.00 | 0.00 | 73 | 1021.1 |
| 20260502114515 | 1 | 227 | 0.0 | 0.0 | 0.00 | 0.00 | 0.00 | 75 | 1021.1 |
| 20260502113014 | 1 | 227 | 0.0 | 0.0 | 0.00 | 0.00 | 0.00 | 74 | 1021.1 |
| 20260502111549 | 1 | 227 | 0.0 | 0.0 | 0.00 | 0.00 | 0.00 | 74 | 1020.9 |
| 20260502110042 | 1 | 228 | 0.0 | 0.0 | 0.00 | 0.00 | 0.00 | 74 | 1020.9 |
| 20260502104540 | 1 | 228 | 0.0 | 0.0 | 0.00 | 0.00 | 0.00 | 74 | 1020.8 |
| 20260502103039 | 1 | 228 | 0.0 | 0.0 | 0.00 | 0.00 | 0.00 | 74 | 1020.9 |
| 20260502101537 | 1 | 228 | 0.0 | 0.0 | 0.00 | 0.00 | 0.00 | 72 | 1020.9 |
| 20260502071512 | 2 | 228 | 0.0 | 0.0 | 0.00 | 0.00 | 0.00 | 66 | 1020.8 |
| 20260502070015 | 2 | 228 | 0.0 | 0.0 | 0.00 | 0.00 | 0.00 | 66 | 1020.8 |
| 20260502064515 | 2 | 228 | 0.0 | 0.0 | 0.00 | 0.00 | 0.00 | 67 | 1020.8 |
| 20260502063009 | 2 | 228 | 0.0 | 0.0 | 0.00 | 0.00 | 0.00 | 66 | 1020.9 |
| 20260502061505 | 2 | 228 | 0.0 | 0.0 | 0.00 | 0.00 | 0.00 | 65 | 1021.0 |
| 20260502060004 | 3 | 228 | 0.0 | 0.0 | 0.00 | 0.00 | 0.00 | 65 | 1021.0 |
| 20260502054534 | 3 | 228 | 0.0 | 0.0 | 0.00 | 0.00 | 0.00 | 64 | 1021.0 |
| 20260502053040 | 3 | 228 | 0.0 | 0.0 | 0.00 | 0.00 | 0.00 | 64 | 1021.0 |
| 20260502051601 | 3 | 228 | 0.0 | 0.0 | 0.00 | 0.00 | 0.00 | 64 | 1021.0 |
| 20260502050030 | 3 | 228 | 0.0 | 0.0 | 0.00 | 0.00 | 0.00 | 62 | 1021.0 |
| 20260502044529 | 3 | 228 | 0.0 | 0.0 | 0.00 | 0.00 | 0.00 | 60 | 1020.9 |
| 20260502043029 | 3 | 228 | 0.0 | 0.0 | 0.00 | 0.00 | 0.00 | 61 | 1020.9 |
| 20260502041529 | 4 | 228 | 0.0 | 0.0 | 0.00 | 0.00 | 0.00 | 58 | 1020.9 |
| 20260502040026 | 5 | 228 | 0.0 | 0.0 | 0.00 | 0.00 | 0.00 | 57 | 1021.0 |
| 20260502034526 | 5 | 228 | 0.0 | 0.0 | 0.00 | 0.00 | 0.00 | 55 | 1021.0 |
| 20260502033026 | 5 | 228 | 0.0 | 0.0 | 0.00 | 0.00 | 0.00 | 52 | 1021.0 |
| 20260502031522 | 6 | 228 | 0.0 | 0.0 | 0.00 | 0.00 | 0.00 | 49 | 1020.9 |
| 20260502030024 | 6 | 228 | 0.0 | 0.0 | 0.00 | 0.00 | 0.00 | 47 | 1021.0 |
| 20260502024520 | 7 | 228 | 0.0 | 0.0 | 0.00 | 0.00 | 0.00 | 45 | 1020.9 |
| 20260502023030 | 7 | 228 | 0.0 | 0.0 | 0.00 | 0.00 | 0.00 | 43 | 1020.9 |
| 20260502021550 | 8 | 228 | 0.0 | 0.0 | 0.00 | 0.00 | 0.00 | 40 | 1020.9 |
| 20260502020050 | 8 | 228 | 0.0 | 0.0 | 0.00 | 0.00 | 0.00 | 38 | 1020.6 |
| 20260502014519 | 9 | 228 | 0.0 | 1.6 | 0.00 | 0.00 | 0.00 | 35 | 1020.5 |
| 20260502013018 | 10 | 228 | 0.0 | 0.0 | 0.00 | 0.00 | 0.00 | 34 | 1020.3 |
| 20260502011516 | 10 | 228 | 0.0 | 6.4 | 0.00 | 0.00 | 0.00 | 32 | 1020.4 |
| 20260502010015 | 10 | 226 | 0.0 | 8.0 | 0.00 | 0.00 | 0.00 | 32 | 1020.3 |
| 20260502004514 | 11 | 281 | 0.0 | 6.4 | 0.00 | 0.00 | 0.00 | 31 | 1020.2 |
| 20260502003015 | 11 | 319 | 1.6 | 14.5 | 0.00 | 0.00 | 0.00 | 31 | 1020.3 |
| 20260502001612 | 11 | 321 | 0.0 | 8.0 | 0.00 | 0.00 | 0.00 | 31 | 1020.3 |
| 20260502000048 | 11 | 310 | 0.0 | 9.7 | 0.00 | 0.00 | 0.00 | 31 | 1020.4 |
| 20260501234541 | 11 | 339 | 4.8 | 16.1 | 0.00 | 0.00 | 0.00 | 32 | 1020.4 |